Location: ????????
(55.0559°N, 39.1270°E)
Time: 00:33:48
(UTC+00:00)

Cosmos 1464 Rocket - Pass Details

Date: 15 November 2025
Orbit: 950 x 1001 km, 82.9° (Epoch: 12 December)

Event Time Altitude Azimuth Distance (km) Brightness Sun altitude
Rises 02:49:42 0° 348° (NNW) 3,664 6.8 -17.7°
Reaches altitude 10° 02:52:13 10° 349° (NNW) 2,707 6.1 -17.3°
Maximum altitude 02:58:26 89° 74° (ENE) 963 3.9 -16.5°
Drops below altitude 10° 03:04:33 10° 171° (S) 2,672 6.5 -15.6°
Sets 03:07:01 0° 171° (S) 3,613 7.2 -15.2°
